Total_Precipitation_Accumulation
0.11 0.15 0.17 0.17 0.19 0.22 0.25 0.30 0.35 0.32 0.37 0.47 0.53 0.62 0.71 0.64 0.59 0.47 0.30 0.24 0.18 0.15 0.14 0.14 0.13 0.15 0.18 0.18 0.21 0.22 0.23 0.26 0.31 0.42 0.59 0.76 0.90 0.99
0.17 0.19 0.22 0.22 0.23 0.26 0.27 0.35 0.45 0.43 0.45 0.51 0.54 0.55 0.54 0.40 0.36 0.31 0.24 0.19 0.13 0.10 0.10 0.09 0.08 0.08 0.09 0.09 0.09 0.08 0.08 0.08 0.09 0.12 0.17 0.28 0.44 0.67
0.13 0.15 0.20 0.24 0.26 0.29 0.36 0.42 0.45 0.53 0.52 0.46 0.51 0.56 0.48 0.32 0.22 0.19 0.16 0.12 0.08 0.08 0.08 0.06 0.05 0.04 0.04 0.04 0.03 0.03 0.02 0.02 0.02 0.02 0.03 0.05 0.08 0.14
0.13 0.15 0.15 0.17 0.21 0.26 0.34 0.39 0.45 0.57 0.59 0.44 0.43 0.48 0.43 0.32 0.20 0.17 0.11 0.08 0.06 0.06 0.06 0.06 0.04 0.03 0.02 0.01 0.01 0.01 0.01 0.00 0.00 0.00 0.01 0.01 0.01 0.02
0.18 0.18 0.16 0.16 0.18 0.23 0.31 0.33 0.38 0.55 0.63 0.55 0.48 0.46 0.44 0.32 0.23 0.17 0.10 0.07 0.05 0.04 0.04 0.03 0.02 0.01 0.01 0.01 0.00 0.00 0.00 0.00 0.00 0.00 0.00 0.00 0.00 0.00
0.23 0.22 0.19 0.17 0.16 0.14 0.23 0.35 0.40 0.48 0.58 0.59 0.60 0.59 0.50 0.38 0.30 0.23 0.16 0.09 0.05 0.03 0.02 0.02 0.01 0.01 0.00 0.00 0.00 0.00 0.00 0.00 0.00 0.00 0.00 0.00 0.00 0.00
0.15 0.20 0.19 0.16 0.14 0.12 0.13 0.23 0.36 0.51 0.68 0.75 0.74 0.78 0.67 0.53 0.40 0.28 0.21 0.14 0.08 0.04 0.03 0.02 0.02 0.01 0.00 0.00 0.00 0.00 0.00 0.00 0.00 0.00 0.00 0.00 0.00 0.00
0.10 0.16 0.16 0.15 0.11 0.09 0.08 0.11 0.19 0.33 0.53 0.71 0.83 0.87 0.81 0.66 0.49 0.34 0.23 0.13 0.11 0.10 0.07 0.05 0.03 0.01 0.00 0.00 0.00 0.00 0.00 0.00 0.00 0.00 0.00 0.00 0.00 0.00
0.08 0.10 0.11 0.10 0.11 0.08 0.05 0.05 0.06 0.13 0.25 0.41 0.57 0.64 0.70 0.66 0.51 0.36 0.24 0.16 0.11 0.09 0.07 0.04 0.02 0.00 0.00 0.00 0.00 0.00 0.00 0.00 0.00 0.00 0.00 0.00 0.00 0.00
0.09 0.09 0.10 0.10 0.09 0.08 0.06 0.04 0.03 0.04 0.10 0.18 0.29 0.39 0.44 0.43 0.37 0.32 0.26 0.19 0.15 0.10 0.05 0.04 0.02 0.02 0.01 0.00 0.00 0.00 0.00 0.00 0.00 0.00 0.00 0.00 0.00 0.00
0.11 0.12 0.13 0.11 0.08 0.07 0.07 0.04 0.02 0.02 0.04 0.08 0.15 0.24 0.29 0.29 0.24 0.22 0.20 0.15 0.13 0.09 0.04 0.02 0.02 0.05 0.06 0.03 0.00 0.00 0.00 0.00 0.00 0.00 0.00 0.00 0.00 0.00
0.15 0.16 0.16 0.13 0.10 0.08 0.07 0.05 0.02 0.01 0.01 0.03 0.08 0.14 0.16 0.19 0.19 0.14 0.11 0.10 0.08 0.06 0.03 0.01 0.01 0.04 0.08 0.05 0.01 0.00 0.00 0.00 0.00 0.00 0.00 0.00 0.00 0.00
0.19 0.20 0.20 0.18 0.15 0.11 0.08 0.06 0.03 0.01 0.01 0.02 0.05 0.09 0.12 0.13 0.13 0.11 0.09 0.06 0.04 0.03 0.02 0.01 0.01 0.01 0.02 0.01 0.00 0.00 0.00 0.00 0.00 0.00 0.00 0.00 0.00 0.00
0.24 0.27 0.26 0.26 0.23 0.19 0.13 0.08 0.04 0.02 0.01 0.02 0.03 0.07 0.09 0.10 0.10 0.09 0.09 0.06 0.04 0.02 0.01 0.01 0.01 0.01 0.00 0.00 0.00 0.00 0.00 0.00 0.00 0.00 0.00 0.01 0.01 0.00
0.28 0.37 0.40 0.37 0.35 0.30 0.22 0.14 0.07 0.04 0.02 0.02 0.03 0.04 0.04 0.05 0.05 0.06 0.06 0.06 0.04 0.01 0.01 0.00 0.00 0.00 0.00 0.00 0.00 0.00 0.00 0.00 0.00 0.00 0.00 0.01 0.01 0.00
0.32 0.42 0.52 0.54 0.52 0.46 0.35 0.21 0.10 0.06 0.03 0.03 0.02 0.02 0.03 0.03 0.03 0.03 0.03 0.03 0.03 0.01 0.00 0.00 0.00 0.00 0.00 0.00 0.00 0.00 0.00 0.00 0.00 0.00 0.00 0.00 0.00 0.00
0.38 0.48 0.63 0.69 0.72 0.64 0.48 0.29 0.15 0.09 0.05 0.03 0.03 0.02 0.02 0.02 0.02 0.02 0.02 0.02 0.01 0.00 0.00 0.00 0.00 0.00 0.00 0.00 0.00 0.00 0.00 0.00 0.00 0.00 0.00 0.00 0.00 0.00
0.34 0.48 0.67 0.74 0.77 0.72 0.56 0.35 0.18 0.09 0.06 0.04 0.03 0.02 0.02 0.02 0.02 0.01 0.02 0.01 0.01 0.00 0.00 0.00 0.00 0.00 0.00 0.00 0.00 0.00 0.00 0.00 0.00 0.00 0.00 0.00 0.00 0.00
0.23 0.35 0.53 0.69 0.73 0.72 0.57 0.35 0.18 0.08 0.05 0.04 0.04 0.03 0.02 0.02 0.02 0.02 0.01 0.01 0.01 0.00 0.00 0.00 0.00 0.00 0.00 0.00 0.00 0.00 0.00 0.00 0.00 0.00 0.00 0.00 0.00 0.00
0.16 0.22 0.36 0.57 0.65 0.66 0.53 0.35 0.19 0.09 0.04 0.03 0.03 0.03 0.02 0.01 0.01 0.01 0.01 0.00 0.00 0.00 0.00 0.00 0.00 0.00 0.00 0.00 0.00 0.00 0.00 0.00 0.00 0.00 0.00 0.00 0.00 0.00
0.13 0.16 0.24 0.42 0.53 0.56 0.44 0.30 0.18 0.08 0.03 0.02 0.01 0.02 0.02 0.01 0.01 0.00 0.00 0.00 0.00 0.00 0.00 0.00 0.00 0.00 0.00 0.00 0.00 0.00 0.00 0.00 0.00 0.00 0.00 0.00 0.00 0.00
0.10 0.12 0.17 0.28 0.37 0.41 0.34 0.22 0.14 0.07 0.02 0.01 0.00 0.01 0.01 0.01 0.01 0.00 0.00 0.00 0.00 0.00 0.00 0.00 0.00 0.00 0.00 0.00 0.00 0.00 0.00 0.00 0.00 0.00 0.00 0.00 0.00 0.00
0.09 0.08 0.10 0.18 0.22 0.25 0.21 0.13 0.08 0.04 0.01 0.00 0.00 0.00 0.00 0.00 0.00 0.00 0.00 0.00 0.00 0.00 0.00 0.00 0.00 0.00 0.00 0.00 0.00 0.00 0.00 0.00 0.00 0.00 0.00 0.00 0.00 0.00